Location: Frydek-Mistek
(49.6830°N, 18.3330°E)
Time: 04:32:41
(UTC+02:00)

ISS - Pass Details

Date: 21 May 2021
Orbit: 417 x 422 km, 51.6° (Epoch: 13 June)

Event Time Altitude Azimuth Distance (km) Brightness Sun altitude
Rises 23:45:19 0° 287° (WNW) 2,369 0.5 -18.8°
Reaches altitude 10° 23:47:25 10° 287° (WNW) 1,504 -0.6 -18.9°
Maximum altitude 23:50:48 87° 202° (SSW) 426 -3.9 -19.0°
Enters shadow 23:51:11 68° 117° (ESE) 457 -3.8 -19.0°
